sat.trackr.live / text

‹ back to catalog

STARLINK-33743

NORAD 63440 · 2025-069H

PAYLOAD ACTIVE UNKNOWN

§ Identity

Operator
Country
US
Launch date
2025-04-04
Launch site
AFWTR
Launch vehicle
Mass (kg)
RCS (m²)

Purposes: comms

External: N2YO · Heavens-Above · Gunter

§ Orbital elements

Epoch: 2026-05-25T00:02:14.163648Z

Period
93.37 min
Inclination
53.1587°
Eccentricity
0.0000834
Mean motion
15.42175898 rev/d
Perigee alt
439.1 km
Apogee alt
440.3 km
Semi-major
6,817.8 km
B*
8.0551e-4
RAAN
145.5143°
Arg perigee
58.6748°
Mean anomaly
301.4339°
Rev number
6,501

§ Raw data

STARLINK-337431 63440U 25069H   26145.00155282  .00034819  00000+0  80551-3 0  99962 63440  53.1587 145.5143 0000834  58.6748 301.4339 15.42175898 65019

JSON: /api/v1/satellites/63440 · /tle

For live sub-satellite position, see the globe view (requires WebGL).

§ Visibility from observer

Set your observer location to see the next 7 days of passes ≥ 10°. The values pass through the URL so the page stays shareable.

No JS? Fill the form by hand. The geolocation button needs JavaScript.